Theta_e
313 312 310 310 310 309 308 308 309 310 310 309 309 308 305 305 305 306 304 304 304 305
310 310 309 308 308 308 308 310 308 307 306 306 306 305 303 302 302 302 301 301 301 302
309 309 308 308 307 307 307 306 305 304 304 304 304 304 302 301 302 302 302 303 301 301
308 308 308 308 307 307 305 304 304 305 304 304 304 304 302 302 302 302 302 303 303 303
307 307 306 305 306 306 304 303 304 304 304 304 304 304 303 302 303 303 302 303 303 303
304 305 304 304 304 305 303 303 304 304 304 304 304 303 303 303 303 303 303 304 303 302
300 301 302 302 302 303 303 302 303 303 303 303 303 304 304 304 305 305 305 305 305 304
298 300 301 301 300 300 301 301 302 302 302 302 302 305 304 305 305 303 303 304 305 304
297 297 297 298 299 299 299 300 300 301 301 300 303 303 303 304 303 302 302 302 304 305
295 295 296 297 297 297 297 298 298 299 300 302 300 301 300 301 299 299 299 300 301 302
293 293 294 294 295 296 296 297 297 299 300 300 301 300 297 298 296 296 297 298 300 300
292 292 293 294 296 296 295 297 301 302 302 297 297 297 295 295 295 294 294 297 298 299
294 294 294 296 295 298 299 300 300 299 296 298 294 294 294 294 292 291 293 295 297 299
292 292 294 295 296 294 295 296 295 294 292 291 292 292 294 293 291 291 291 293 296 301
Wind_Speed
8 6 5 5 5 4 4 3 3 4 4 4 3 2 3 2 3 2 3 5 4 3
6 7 6 7 6 4 3 3 3 3 2 3 4 4 4 3 5 4 3 5 5 4
6 6 6 6 6 6 4 4 3 1 1 3 3 4 4 4 5 5 4 5 6 5
5 5 5 4 3 4 3 3 2 2 3 4 5 6 5 6 6 6 7 7 8 10
4 4 4 2 3 3 4 1 2 3 4 5 5 6 6 6 6 7 8 9 9 10
3 1 2 2 2 2 1 1 2 3 5 6 6 6 6 6 6 7 8 9 10 12
7 6 4 4 5 5 2 2 3 5 5 5 6 5 7 6 7 9 9 10 10 12
6 7 6 6 5 4 3 4 5 6 6 6 6 5 7 9 9 9 11 11 13 14
6 6 6 5 6 5 5 6 5 6 6 6 4 9 12 12 9 9 12 13 14 14
6 5 6 6 5 5 6 5 5 6 6 6 6 10 10 14 9 11 11 13 14 15
6 5 5 5 5 5 4 5 5 6 6 5 6 10 12 16 10 11 13 14 15 15
5 5 5 6 6 5 5 5 4 4 6 6 6 10 12 15 11 12 14 13 15 15
5 6 6 6 6 5 5 4 4 5 6 8 6 10 12 13 9 12 11 14 14 19
6 5 4 6 5 6 6 6 6 5 5 6 7 8 11 17 10 9 11 11 12 11
Wind_Direction
81 81 90 102 101 97 92 76 48 51 53 48 42 28 14 356 339 328 318 300 285 278
89 94 102 95 92 93 97 108 109 99 70 350 333 324 330 317 302 305 279 274 266 254
98 98 107 113 118 129 140 138 148 156 272 301 297 296 300 294 298 304 290 285 278 273
104 104 101 106 121 148 154 185 214 250 307 313 316 310 311 300 292 290 292 290 283 284
106 127 135 154 180 185 198 243 302 310 306 304 306 303 300 290 291 288 289 285 285 282
52 213 222 235 33 66 68 10 339 322 313 318 310 306 294 276 276 269 266 272 274 275
38 38 50 85 83 77 57 9 322 308 313 308 300 290 286 283 288 284 278 278 280 278
38 39 42 45 42 17 354 335 328 323 316 302 301 299 309 313 306 299 300 282 271 269
38 32 19 6 356 355 346 335 325 320 307 307 310 308 316 331 315 301 286 290 291 281
22 16 359 343 337 336 327 319 316 308 310 311 320 323 339 334 318 305 303 297 292 292
4 351 336 329 322 310 306 311 308 299 314 328 327 341 345 340 317 310 303 296 293 289
342 322 326 326 326 323 310 307 311 310 348 343 332 349 350 343 328 314 303 302 300 289
339 347 333 325 320 309 321 334 350 4 2 343 336 342 343 343 326 307 314 308 301 297
349 335 321 330 8 353 2 355 1 7 339 330 328 326 334 340 325 319 310 303 303 306